Hourly Data Report for October 27, 2016

All times are specified in Local Standard Time (LST). Add 1 hour to adjust for Daylight Saving Time where and when it is observed.

WINNIPEG A CS
MANITOBA

49°55'00.000" N
97°14'58.000" W
238.70 m
502S001
71849
XWG

Download Data

Hourly Data (October 2016)
Hourly Data Report for October 27, 2016
Temp Definition
°C
Dew Point Temp Definition
°C
Rel Hum Definition
%
Wind Dir Definition
10's deg

Wind Spd Definition
km/h
Visibility Definition
km
Stn Press Definition
kPa
Hmdx Definition


Wind Chill Definition


Weather Definition


TIME
00:00 7.7 6.6 93 24 14   98.77     LegendNANA
01:00 5.1 4.0 92 26 14   98.78     LegendNANA
02:00 5.2 4.1 93 26 12   98.81     LegendNANA
03:00 5.0 3.9 92 26 12   98.79     LegendNANA
04:00 4.9 3.9 93 26 12   98.78     LegendNANA
05:00 4.0 3.2 95 25 11   98.81     LegendNANA
06:00 2.8 2.3 97 25 12   98.85     LegendNANA
07:00 2.3 2.1 98 24 11   98.85     LegendNANA
08:00 2.8 2.5 98 22 5   98.93     LegendNANA
09:00 4.2 3.3 94 25 6   98.89     LegendNANA
10:00 5.5 3.5 87 26 6   98.91     LegendNANA
11:00 7.5 4.5 81 20 5   98.87     LegendNANA
12:00 9.0 4.6 74 20 8   98.82     LegendNANA
13:00 9.1 4.5 73 20 14   98.76     LegendNANA
14:00 9.3 5.2 76 20 13   98.71     LegendNANA
15:00 8.9 5.4 79 17 14   98.64     LegendNANA
16:00 8.6 5.5 81 16 13   98.56     LegendNANA
17:00 8.2 5.5 84 16 11   98.54     LegendNANA
18:00 7.5 5.7 89 16 11   98.51     LegendNANA
19:00 7.7 5.7 87 14 14   98.47     LegendNANA
20:00 7.7 5.8 88 14 13   98.44     LegendNANA
21:00 7.4 5.8 90 15 14   98.33     LegendNANA
22:00 8.1 6.6 90 13 14   98.22     LegendNANA
23:00 8.6 7.2 91 13 18   98.09     LegendNANA

Notes on Data Quality.

Legend

  • E = Estimated
  • M = Missing
  • NA = Not Available
  • ‡ = Partner data that is not subject to review by the National Climate Archives
Date modified: